Location: Newark
(42.9260°N, 89.3850°W)
Time: 18:19:49
(UTC+00:00)

STARLINK 1027 - Pass Details

Date: 11 December 2019
Orbit: 427 x 429 km, 53.0° (Epoch: 22 January)

Event Time Altitude Azimuth Distance (km) Brightness Sun altitude
Exits shadow 11:15:32 36° 187° (S) 750 4.3 -21.7°
Drops below altitude 10° 11:18:09 10° 151° (SSE) 1,599 6.5 -21.2°
Sets 11:20:20 0° 144° (SE) 2,464 7.7 -20.8°
